Location: Unspecified
(50.1700°N, 6.8600°E)
Time: 10:41:12
(UTC+00:00)

Cosmos 389 Rocket - Pass Details

Date: 24 January 2019
Orbit: 446 x 478 km, 81.1° (Epoch: 21 April)

Event Time Altitude Azimuth Distance (km) Brightness Sun altitude
Exits shadow 06:37:24 - 335° (NNW) 2,375 5.6 -6.6°
Reaches altitude 10° 06:39:25 10° 322° (NW) 1,637 4.7 -6.3°
Maximum altitude 06:42:16 23° 269° (W) 1,044 3.7 -5.9°
Drops below altitude 10° 06:45:05 10° 215° (SW) 1,609 5.1 -5.5°
Sets 06:47:25 0° 201° (SSW) 2,471 6.2 -5.1°
